^^
Saratoga-Weather Station Historical Data
Daily Summary for April 13, 2020 Units:  English    Metric   Both
Daily Weekly Monthly Yearly Custom
  High: Low: Average:
Temperature: 46 °F 37.2 °F 42.4 °F
Dew Point: 44.4 °F 36 °F 40.5 °F
Humidity: 97% 88% 93%
Wind Speed: 10.1mph 0mph 1.6mph
Wind Gust: 12mph - -
Wind- - SW
Pressure: 29.9 in 29.7 in -
Precipitation: 0.01 in    
Historical Graphs
 
 
Tabular Data for April 13, 2020
Time Temperature Dew Point Pressure Wind Wind Speed Wind Gust Humidity Rainfall Rate (Hourly) solar
00:02 46 °F 44.4 °F 29.7 in WNW 8.1 mph 10 mph 94% 0.01 in 0 W/m2
00:07 46 °F 44.4 °F 29.7 in WNW 8.1 mph 12 mph 94% 0 in 0 W/m2
00:12 46 °F 44.4 °F 29.7 in West 6 mph 12 mph 94% 0 in 0 W/m2
00:17 46 °F 44.4 °F 29.7 in WNW 4.9 mph 6 mph 94% 0 in 0 W/m2
00:22 46 °F 44.4 °F 29.7 in West 2.9 mph 7 mph 94% 0 in 0 W/m2
00:27 46 °F 44.4 °F 29.7 in WSW 4 mph 8 mph 94% 0.01 in 0 W/m2
00:32 45.9 °F 44.4 °F 29.7 in West 4 mph 8 mph 95% 0.01 in 0 W/m2
00:37 45.9 °F 44.4 °F 29.7 in WSW 4 mph 6 mph 95% 0.01 in 0 W/m2
00:42 45.9 °F 44.2 °F 29.7 in West 10.1 mph 11 mph 94% 0.01 in 0 W/m2
00:47 45.9 °F 44.2 °F 29.7 in West 4 mph 8 mph 94% 0.01 in 0 W/m2
00:52 45.9 °F 44.2 °F 29.7 in West 2.9 mph 11 mph 94% 0.01 in 0 W/m2
00:57 45.9 °F 44.2 °F 29.7 in West 8.9 mph 9 mph 94% 0.01 in 0 W/m2
01:02 45.9 °F 44.2 °F 29.7 in West 6 mph 8 mph 94% 0.01 in 0 W/m2
01:07 45.9 °F 44.2 °F 29.7 in West 4 mph 7 mph 94% 0.01 in 0 W/m2
01:12 45.9 °F 44.2 °F 29.7 in WNW 6.9 mph 7 mph 94% 0.01 in 0 W/m2
01:17 45.9 °F 44.2 °F 29.7 in West 4 mph 6 mph 94% 0.01 in 0 W/m2
01:22 45.9 °F 44.2 °F 29.7 in West 6.9 mph 7 mph 94% 0.01 in 0 W/m2
01:27 45.7 °F 44.1 °F 29.7 in West 2.9 mph 5 mph 94% 0 in 0 W/m2
01:32 45.7 °F 44.1 °F 29.7 in West 4 mph 9 mph 94% 0 in 0 W/m2
01:37 45.7 °F 44.1 °F 29.7 in West 4 mph 9 mph 94% 0 in 0 W/m2
01:42 45.7 °F 44.1 °F 29.7 in West 6.9 mph 7 mph 94% 0 in 0 W/m2
01:47 45.7 °F 44.1 °F 29.7 in West 2 mph 8 mph 94% 0 in 0 W/m2
01:52 45.7 °F 44.1 °F 29.7 in WNW 4 mph 9 mph 94% 0 in 0 W/m2
01:57 45.5 °F 43.9 °F 29.7 in West 2.9 mph 9 mph 94% 0 in 0 W/m2
02:02 45.5 °F 43.9 °F 29.7 in West 2.9 mph 10 mph 94% 0 in 0 W/m2
02:07 45.5 °F 43.9 °F 29.7 in West 2.9 mph 6 mph 94% 0 in 0 W/m2
02:12 45.3 °F 43.7 °F 29.7 in NW 4 mph 10 mph 94% 0 in 0 W/m2
02:17 45.5 °F 43.9 °F 29.7 in WSW 2.9 mph 9 mph 94% 0 in 0 W/m2
02:22 45.5 °F 43.9 °F 29.7 in WNW 4 mph 10 mph 94% 0 in 0 W/m2
02:27 45.5 °F 43.9 °F 29.8 in West 6 mph 6 mph 94% 0 in 0 W/m2
02:32 45.3 °F 43.7 °F 29.8 in West 2 mph 6 mph 94% 0 in 0 W/m2
02:37 45.3 °F 43.7 °F 29.8 in West 6 mph 7 mph 94% 0 in 0 W/m2
02:42 45.3 °F 43.7 °F 29.8 in West 4 mph 7 mph 94% 0 in 0 W/m2
02:47 45.3 °F 43.7 °F 29.8 in WNW 8.1 mph 10 mph 94% 0 in 0 W/m2
02:52 45.3 °F 43.7 °F 29.8 in NW 4.9 mph 7 mph 94% 0 in 0 W/m2
02:57 45.3 °F 43.7 °F 29.8 in WSW 4 mph 10 mph 94% 0 in 0 W/m2
03:02 45.3 °F 43.3 °F 29.8 in NW 2 mph 5 mph 93% 0 in 0 W/m2
03:07 45.3 °F 43.3 °F 29.8 in West 2 mph 10 mph 93% 0 in 0 W/m2
03:12 45.1 °F 43.2 °F 29.8 in SW 2 mph 4 mph 93% 0 in 0 W/m2
03:17 45.1 °F 43.5 °F 29.8 in West 2.9 mph 4 mph 94% 0 in 0 W/m2
03:22 45.1 °F 43.5 °F 29.8 in WNW 2.9 mph 7 mph 94% 0 in 0 W/m2
03:27 45.1 °F 43.5 °F 29.8 in WNW 6 mph 10 mph 94% 0 in 0 W/m2
03:32 45.1 °F 43.5 °F 29.8 in West 2.9 mph 5 mph 94% 0 in 0 W/m2
03:37 45.1 °F 43.2 °F 29.8 in WNW 6 mph 11 mph 93% 0 in 0 W/m2
03:42 45.1 °F 43.2 °F 29.8 in WNW 2.9 mph 6 mph 93% 0 in 0 W/m2
03:47 45.1 °F 43.2 °F 29.8 in West 4 mph 7 mph 93% 0 in 0 W/m2
03:52 45.1 °F 43.2 °F 29.8 in West 0.9 mph 6 mph 93% 0 in 0 W/m2
03:57 45.1 °F 43.2 °F 29.8 in WNW 4 mph 6 mph 93% 0 in 0 W/m2
04:02 45 °F 43.3 °F 29.8 in West 2.9 mph 4 mph 94% 0 in 0 W/m2
04:07 45 °F 43.3 °F 29.8 in WSW 2.9 mph 6 mph 94% 0 in 0 W/m2
04:12 45 °F 43 °F 29.8 in West 0.9 mph 4 mph 93% 0 in 0 W/m2
04:17 45 °F 43 °F 29.8 in WNW 4 mph 7 mph 93% 0 in 0 W/m2
04:22 45 °F 43.3 °F 29.8 in WNW 2.9 mph 7 mph 94% 0 in 0 W/m2
04:27 45 °F 43.3 °F 29.8 in WSW 2 mph 9 mph 94% 0 in 0 W/m2
04:32 45 °F 43.3 °F 29.8 in West 2 mph 4 mph 94% 0 in 0 W/m2
04:37 45 °F 43.3 °F 29.8 in WNW 2.9 mph 5 mph 94% 0 in 0 W/m2
04:42 45 °F 43.3 °F 29.8 in NW 2 mph 6 mph 94% 0 in 0 W/m2
04:47 45 °F 43.3 °F 29.8 in WSW 0.9 mph 4 mph 94% 0 in 0 W/m2
04:52 44.8 °F 43.2 °F 29.8 in WSW 2 mph 6 mph 94% 0 in 0 W/m2
04:57 44.8 °F 43.2 °F 29.8 in WSW 0.9 mph 4 mph 94% 0 in 0 W/m2
05:02 44.8 °F 43.2 °F 29.8 in West 2 mph 4 mph 94% 0 in 0 W/m2
05:07 44.6 °F 43 °F 29.8 in West 2.9 mph 7 mph 94% 0 in 0 W/m2
05:12 44.6 °F 43 °F 29.8 in WSW 2.9 mph 4 mph 94% 0 in 0 W/m2
05:17 44.6 °F 43 °F 29.8 in West 2 mph 7 mph 94% 0 in 0 W/m2
05:22 44.6 °F 43 °F 29.8 in WNW 4 mph 5 mph 94% 0 in 0 W/m2
05:27 44.4 °F 42.8 °F 29.8 in West 2.9 mph 7 mph 94% 0 in 0 W/m2
05:32 44.4 °F 42.8 °F 29.8 in Calm   2 mph 94% 0 in 0 W/m2
05:37 44.4 °F 42.8 °F 29.8 in West 2 mph 4 mph 94% 0 in 0 W/m2
05:42 44.4 °F 42.8 °F 29.8 in WNW 2.9 mph 3 mph 94% 0 in 0 W/m2
05:47 44.4 °F 42.8 °F 29.8 in WSW 0.9 mph 4 mph 94% 0 in 0 W/m2
05:52 44.4 °F 42.8 °F 29.8 in WNW 2 mph 4 mph 94% 0 in 0 W/m2
05:57 44.2 °F 42.6 °F 29.8 in Calm   3 mph 94% 0 in 0 W/m2
06:02 44.2 °F 42.6 °F 29.8 in Calm   2 mph 94% 0 in 0 W/m2
06:07 44.2 °F 42.6 °F 29.8 in WNW 2 mph 3 mph 94% 0 in 0 W/m2
06:12 44.2 °F 42.6 °F 29.8 in Calm   4 mph 94% 0 in 0 W/m2
06:17 44.2 °F 42.6 °F 29.8 in SW 2.9 mph 5 mph 94% 0 in 0 W/m2
06:22 44.2 °F 42.6 °F 29.8 in West 2 mph 2 mph 94% 0 in 0 W/m2
06:28 44.1 °F 42.4 °F 29.8 in West 2 mph 5 mph 94% 0 in 0 W/m2
06:33 44.1 °F 42.4 °F 29.8 in West 2.9 mph 3 mph 94% 0 in 0 W/m2
06:38 44.1 °F 42.4 °F 29.8 in West 2.9 mph 3 mph 94% 0 in 0 W/m2
06:43 44.1 °F 42.4 °F 29.8 in WNW 2 mph 4 mph 94% 0 in 0 W/m2
06:48 44.1 °F 42.4 °F 29.8 in SSW 0.9 mph 4 mph 94% 0 in 0 W/m2
06:53 44.1 °F 42.4 °F 29.8 in West 2 mph 3 mph 94% 0 in 0 W/m2
06:58 44.1 °F 42.4 °F 29.8 in Calm   3 mph 94% 0 in 0 W/m2
07:03 43.9 °F 42.3 °F 29.8 in Calm   1 mph 94% 0 in 0 W/m2
07:08 43.9 °F 42.3 °F 29.8 in West 2.9 mph 3 mph 94% 0 in 0 W/m2
07:13 43.7 °F 42.1 °F 29.8 in Calm     94% 0 in 0 W/m2
07:18 43.5 °F 41.9 °F 29.8 in SW 0.9 mph 5 mph 94% 0 in 0 W/m2
07:23 43.5 °F 41.9 °F 29.8 in WNW 2 mph 4 mph 94% 0 in 0 W/m2
07:28 43.5 °F 41.9 °F 29.8 in WSW 2 mph 3 mph 94% 0 in 0 W/m2
07:33 43.5 °F 41.9 °F 29.8 in Calm   4 mph 94% 0 in 0 W/m2
07:38 43.3 °F 41.7 °F 29.8 in West 2.9 mph 7 mph 94% 0 in 0 W/m2
07:43 43.3 °F 41.7 °F 29.8 in Calm   2 mph 94% 0 in 0 W/m2
07:48 43.3 °F 41.7 °F 29.9 in West 2.9 mph 7 mph 94% 0 in 0 W/m2
07:53 43.3 °F 41.7 °F 29.9 in Calm   1 mph 94% 0 in 0 W/m2
07:58 43.3 °F 41.5 °F 29.9 in Calm   4 mph 93% 0 in 0 W/m2
08:03 43.3 °F 41.5 °F 29.9 in West 0.9 mph 2 mph 93% 0 in 0 W/m2
08:08 43.3 °F 41.5 °F 29.9 in Calm   2 mph 93% 0 in 0 W/m2
08:13 43.3 °F 41.7 °F 29.9 in Calm   2 mph 94% 0 in 0 W/m2
08:18 43.3 °F 41.5 °F 29.9 in Calm     93% 0 in 0 W/m2
08:23 43.2 °F 41.4 °F 29.9 in SW 0.9 mph 3 mph 93% 0 in 0 W/m2
08:28 43.2 °F 41.4 °F 29.9 in SW 0.9 mph 2 mph 93% 0 in 0 W/m2
08:33 43.2 °F 41.4 °F 29.9 in Calm   3 mph 93% 0 in 0 W/m2
08:38 43.2 °F 41.4 °F 29.9 in WNW 2 mph 3 mph 93% 0 in 0 W/m2
08:43 43.2 °F 41.4 °F 29.9 in WNW 0.9 mph 2 mph 93% 0 in 5 W/m2
08:48 43 °F 41.2 °F 29.9 in West 0.9 mph 4 mph 93% 0 in 9 W/m2
08:53 43 °F 41.2 °F 29.9 in Calm     93% 0 in 9 W/m2
08:58 43 °F 41.2 °F 29.9 in Calm   4 mph 93% 0 in 9 W/m2
09:03 42.8 °F 41 °F 29.9 in West 0.9 mph 2 mph 93% 0 in 12 W/m2
09:08 42.6 °F 40.8 °F 29.9 in ESE 0.9 mph 3 mph 93% 0 in 14 W/m2
09:13 42.6 °F 40.8 °F 29.9 in NW 0.9 mph 4 mph 93% 0 in 14 W/m2
09:18 42.6 °F 41 °F 29.9 in NW 2.9 mph 3 mph 94% 0 in 25 W/m2
09:23 42.6 °F 40.8 °F 29.9 in Calm   4 mph 93% 0 in 37 W/m2
09:28 42.6 °F 40.8 °F 29.9 in WSW 0.9 mph 2 mph 93% 0 in 40 W/m2
09:33 42.8 °F 41 °F 29.9 in Calm   2 mph 93% 0 in 42 W/m2
09:38 42.8 °F 41 °F 29.9 in WNW 2 mph 3 mph 93% 0 in 40 W/m2
09:43 42.6 °F 40.5 °F 29.9 in SW 0.9 mph 3 mph 92% 0 in 33 W/m2
09:48 42.6 °F 40.5 °F 29.9 in SE 2 mph 4 mph 92% 0 in 33 W/m2
09:53 42.4 °F 40.3 °F 29.9 in Calm   2 mph 92% 0 in 32 W/m2
09:58 42.4 °F 40.3 °F 29.9 in NNW 2.9 mph 3 mph 92% 0 in 30 W/m2
10:03 42.4 °F 40.3 °F 29.9 in Calm   2 mph 92% 0 in 32 W/m2
10:08 42.4 °F 39.9 °F 29.9 in West 2 mph 7 mph 91% 0 in 35 W/m2
10:13 42.4 °F 39.9 °F 29.9 in Calm   2 mph 91% 0 in 51 W/m2
10:18 42.3 °F 39.7 °F 29.9 in NNW 0.9 mph 7 mph 91% 0 in 58 W/m2
10:23 42.3 °F 39.7 °F 29.9 in WNW 2.9 mph 6 mph 91% 0 in 65 W/m2
10:28 42.3 °F 39.7 °F 29.9 in Calm   2 mph 91% 0 in 76 W/m2
10:33 42.1 °F 39.6 °F 29.9 in ESE 0.9 mph 6 mph 91% 0 in 69 W/m2
10:38 42.1 °F 39.6 °F 29.9 in Calm   6 mph 91% 0 in 81 W/m2
10:43 42.1 °F 39.6 °F 29.9 in East 2 mph 3 mph 91% 0 in 90 W/m2
10:48 42.1 °F 39.9 °F 29.9 in West 2 mph 7 mph 92% 0 in 83 W/m2
10:53 41.9 °F 39.7 °F 29.9 in Calm   3 mph 92% 0 in 79 W/m2
10:58 41.9 °F 39.7 °F 29.9 in WNW 2.9 mph 4 mph 92% 0 in 84 W/m2
11:03 41.9 °F 39.7 °F 29.9 in WSW 0.9 mph 3 mph 92% 0 in 86 W/m2
11:08 41.9 °F 39.7 °F 29.9 in WNW 4 mph 4 mph 92% 0 in 91 W/m2
11:13 41.5 °F 39.2 °F 29.9 in West 4 mph 8 mph 91% 0 in 95 W/m2
11:18 41.4 °F 39 °F 29.9 in WNW 0.9 mph 4 mph 91% 0 in 90 W/m2
11:23 41.5 °F 39.4 °F 29.9 in WNW 2.9 mph 3 mph 92% 0 in 76 W/m2
11:28 41.5 °F 39.4 °F 29.9 in NNW 2.9 mph 3 mph 92% 0 in 62 W/m2
11:33 41.5 °F 39.4 °F 29.9 in NW 2 mph 2 mph 92% 0 in 65 W/m2
11:38 41.5 °F 39.4 °F 29.9 in Calm   6 mph 92% 0 in 69 W/m2
11:43 41.5 °F 39.4 °F 29.9 in South 0.9 mph 3 mph 92% 0 in 69 W/m2
11:48 41.5 °F 39.4 °F 29.9 in WSW 0.9 mph 2 mph 92% 0 in 81 W/m2
11:53 41.7 °F 39.6 °F 29.9 in Calm     92% 0 in 83 W/m2
11:58 41.7 °F 39.6 °F 29.9 in NNW 0.9 mph 4 mph 92% 0 in 69 W/m2
12:03 41.7 °F 39.6 °F 29.9 in NNW 0.9 mph 3 mph 92% 0 in 69 W/m2
12:08 41.7 °F 39.2 °F 29.9 in NE 2 mph 5 mph 91% 0 in 72 W/m2
12:13 41.7 °F 39.2 °F 29.9 in Calm   2 mph 91% 0 in 70 W/m2
12:18 41.7 °F 39.2 °F 29.9 in NW 2.9 mph 4 mph 91% 0 in 84 W/m2
12:23 41.7 °F 39.6 °F 29.9 in NE 2 mph 2 mph 92% 0 in 81 W/m2
12:28 41.7 °F 39.2 °F 29.9 in Calm   4 mph 91% 0 in 88 W/m2
12:33 41.7 °F 39.2 °F 29.9 in NNW 2 mph 4 mph 91% 0 in 91 W/m2
12:38 41.7 °F 39.2 °F 29.9 in NW 0.9 mph 2 mph 91% 0 in 93 W/m2
12:43 41.9 °F 39.4 °F 29.9 in West 2 mph 3 mph 91% 0 in 77 W/m2
12:48 41.9 °F 39.4 °F 29.9 in NNW 2 mph 3 mph 91% 0 in 74 W/m2
12:53 41.9 °F 39.4 °F 29.9 in NE 2 mph 3 mph 91% 0 in 74 W/m2
12:58 41.9 °F 39.4 °F 29.9 in SSE 0.9 mph 3 mph 91% 0 in 81 W/m2
13:03 41.9 °F 39.4 °F 29.9 in Calm   2 mph 91% 0 in 69 W/m2
13:08 42.1 °F 39.6 °F 29.9 in NW 4 mph 4 mph 91% 0 in 79 W/m2
13:13 42.1 °F 39.6 °F 29.9 in WSW 4 mph 4 mph 91% 0 in 65 W/m2
13:18 42.1 °F 39.4 °F 29.9 in SE 2.9 mph 3 mph 90% 0 in 67 W/m2
13:23 42.3 °F 39.7 °F 29.9 in Calm   1 mph 91% 0 in 69 W/m2
13:28 42.3 °F 39.6 °F 29.9 in NNW 0.9 mph 4 mph 90% 0 in 67 W/m2
13:33 42.3 °F 39.7 °F 29.9 in East 0.9 mph 4 mph 91% 0 in 70 W/m2
13:38 42.3 °F 39.7 °F 29.9 in NE 0.9 mph 2 mph 91% 0 in 56 W/m2
13:43 42.4 °F 39.9 °F 29.9 in NE 2 mph 2 mph 91% 0 in 58 W/m2
13:48 42.4 °F 39.7 °F 29.9 in Calm   2 mph 90% 0 in 60 W/m2
13:53 42.4 °F 39.7 °F 29.9 in WNW 2 mph 6 mph 90% 0 in 72 W/m2
13:59 42.4 °F 39.7 °F 29.9 in West 2.9 mph 4 mph 90% 0 in 91 W/m2
14:04 42.4 °F 39.7 °F 29.9 in NW 0.9 mph 3 mph 90% 0 in 113 W/m2
14:09 42.6 °F 39.9 °F 29.9 in NW 0.9 mph 4 mph 90% 0 in 146 W/m2
14:14 43 °F 40.3 °F 29.9 in Calm   3 mph 90% 0 in 163 W/m2
14:19 43 °F 39.9 °F 29.9 in Calm   1 mph 89% 0 in 120 W/m2
14:24 43.2 °F 40.1 °F 29.9 in Calm   3 mph 89% 0 in 105 W/m2
14:29 43.3 °F 40.3 °F 29.9 in Calm   2 mph 89% 0 in 46 W/m2
14:34 43.3 °F 40.3 °F 29.9 in Calm   1 mph 89% 0 in 53 W/m2
14:39 43.3 °F 40.1 °F 29.9 in Calm     88% 0 in 54 W/m2
14:44 43.3 °F 40.1 °F 29.9 in Calm   1 mph 88% 0 in 32 W/m2
14:49 43.3 °F 40.1 °F 29.9 in Calm     88% 0 in 32 W/m2
14:54 43.3 °F 40.3 °F 29.9 in Calm     89% 0 in 33 W/m2
14:59 43.3 °F 40.3 °F 29.9 in East 0.9 mph 2 mph 89% 0 in 32 W/m2
15:04 43.3 °F 40.3 °F 29.9 in Calm   1 mph 89% 0 in 23 W/m2
15:09 43.3 °F 40.3 °F 29.9 in East 0.9 mph 2 mph 89% 0 in 12 W/m2
15:14 43.3 °F 40.3 °F 29.9 in Calm   2 mph 89% 0 in 12 W/m2
15:19 43.2 °F 40.1 °F 29.9 in Calm   2 mph 89% 0 in 12 W/m2
15:24 43.2 °F 40.1 °F 29.9 in Calm   1 mph 89% 0 in 16 W/m2
15:29 43.2 °F 40.1 °F 29.9 in Calm   2 mph 89% 0 in 18 W/m2
15:34 43.2 °F 40.1 °F 29.9 in Calm   1 mph 89% 0 in 26 W/m2
15:39 43.2 °F 40.1 °F 29.9 in Calm     89% 0 in 21 W/m2
15:44 43.2 °F 40.5 °F 29.9 in Calm     90% 0 in 18 W/m2
15:49 43.2 °F 40.1 °F 29.9 in Calm     89% 0 in 19 W/m2
15:54 43.2 °F 40.1 °F 29.9 in Calm   2 mph 89% 0 in 16 W/m2
15:59 43.2 °F 40.1 °F 29.9 in NW 2 mph 3 mph 89% 0 in 12 W/m2
16:04 43 °F 39.9 °F 29.9 in NE 0.9 mph 2 mph 89% 0 in 12 W/m2
16:09 43 °F 39.7 °F 29.9 in North 2 mph 3 mph 88% 0 in 12 W/m2
16:14 42.8 °F 39.6 °F 29.9 in ENE 2 mph 2 mph 88% 0 in 11 W/m2
16:19 42.6 °F 39.4 °F 29.9 in ESE 2.9 mph 4 mph 88% 0 in 7 W/m2
16:24 42.6 °F 39.4 °F 29.9 in ENE 0.9 mph 3 mph 88% 0 in 5 W/m2
16:29 42.6 °F 39.4 °F 29.9 in Calm   4 mph 88% 0 in 5 W/m2
16:34 42.4 °F 39.4 °F 29.9 in Calm     89% 0 in 0 W/m2
16:39 42.4 °F 39.4 °F 29.9 in East 2 mph 3 mph 89% 0 in 0 W/m2
16:44 42.3 °F 39.2 °F 29.9 in Calm   1 mph 89% 0 in 0 W/m2
16:49 42.3 °F 39.6 °F 29.9 in NE 0.9 mph 4 mph 90% 0 in 0 W/m2
16:54 42.1 °F 39.4 °F 29.9 in East 2 mph 4 mph 90% 0 in 0 W/m2
16:59 42.1 °F 39.4 °F 29.9 in ENE 2.9 mph 5 mph 90% 0 in 0 W/m2
17:04 42.1 °F 39.4 °F 29.9 in ENE 2 mph 4 mph 90% 0 in 0 W/m2
17:09 42.1 °F 39.4 °F 29.9 in NE 0.9 mph 4 mph 90% 0 in 0 W/m2
17:14 42.1 °F 39.4 °F 29.9 in NE 0.9 mph 4 mph 90% 0 in 0 W/m2
17:19 42.1 °F 39.4 °F 29.9 in ESE 0.9 mph 3 mph 90% 0 in 0 W/m2
17:24 41.9 °F 39.2 °F 29.9 in Calm   1 mph 90% 0 in 0 W/m2
17:29 41.9 °F 39.4 °F 29.9 in Calm     91% 0 in 0 W/m2
17:34 41.7 °F 39.2 °F 29.9 in East 4 mph 4 mph 91% 0 in 0 W/m2
17:39 41.7 °F 39.2 °F 29.9 in NE 2.9 mph 6 mph 91% 0 in 0 W/m2
17:44 41.7 °F 39.2 °F 29.9 in East 2 mph 4 mph 91% 0 in 0 W/m2
17:49 41.7 °F 39.2 °F 29.9 in North 2 mph 6 mph 91% 0 in 0 W/m2
17:54 41.7 °F 39.2 °F 29.9 in ENE 2.9 mph 3 mph 91% 0 in 0 W/m2
17:59 41.7 °F 39.2 °F 29.9 in Calm     91% 0 in 0 W/m2
18:04 41.5 °F 39.2 °F 29.9 in Calm   4 mph 91% 0 in 0 W/m2
18:09 41.5 °F 39.2 °F 29.9 in Calm   2 mph 91% 0 in 0 W/m2
18:14 41.4 °F 39 °F 29.9 in ENE 0.9 mph 3 mph 91% 0 in 0 W/m2
18:19 41.4 °F 39.2 °F 29.9 in Calm     92% 0 in 0 W/m2
18:24 41.4 °F 39.2 °F 29.9 in East 2 mph 3 mph 92% 0 in 0 W/m2
18:29 41.4 °F 39.2 °F 29.9 in East 0.9 mph 2 mph 92% 0 in 0 W/m2
18:34 41.2 °F 39 °F 29.9 in East 0.9 mph 3 mph 92% 0 in 0 W/m2
18:39 41.4 °F 39.2 °F 29.9 in Calm   2 mph 92% 0 in 0 W/m2
18:44 41.2 °F 39 °F 29.9 in ENE 6 mph 7 mph 92% 0 in 0 W/m2
18:49 41.4 °F 39.2 °F 29.9 in East 0.9 mph 4 mph 92% 0 in 0 W/m2
18:54 41.4 °F 39.2 °F 29.9 in Calm   2 mph 92% 0 in 0 W/m2
18:59 41.2 °F 39 °F 29.9 in Calm   1 mph 92% 0 in 0 W/m2
19:05 41 °F 38.8 °F 29.9 in Calm     92% 0 in 0 W/m2
19:10 40.6 °F 38.5 °F 29.9 in Calm   1 mph 92% 0 in 0 W/m2
19:15 40.6 °F 38.8 °F 29.9 in East 0.9 mph 1 mph 93% 0 in 0 W/m2
19:20 40.6 °F 38.8 °F 29.9 in Calm   1 mph 93% 0 in 0 W/m2
19:25 40.6 °F 38.8 °F 29.9 in Calm     93% 0 in 0 W/m2
19:30 40.5 °F 38.7 °F 29.9 in Calm     93% 0 in 0 W/m2
19:35 40.5 °F 38.7 °F 29.9 in Calm   2 mph 93% 0 in 0 W/m2
19:40 40.5 °F 38.8 °F 29.9 in Calm     94% 0 in 0 W/m2
19:45 40.5 °F 38.8 °F 29.9 in Calm   3 mph 94% 0 in 0 W/m2
19:50 40.5 °F 38.8 °F 29.9 in NNE 0.9 mph 2 mph 94% 0 in 0 W/m2
19:55 40.5 °F 38.8 °F 29.9 in NNE 0.9 mph 3 mph 94% 0 in 0 W/m2
20:00 40.5 °F 38.8 °F 29.9 in ENE 2 mph 2 mph 94% 0 in 0 W/m2
20:05 40.5 °F 38.8 °F 29.9 in Calm   2 mph 94% 0 in 0 W/m2
20:10 40.5 °F 38.8 °F 29.9 in Calm     94% 0 in 0 W/m2
20:15 40.5 °F 38.8 °F 29.9 in Calm     94% 0 in 0 W/m2
20:20 40.3 °F 38.7 °F 29.9 in Calm   2 mph 94% 0 in 0 W/m2
20:25 40.3 °F 38.7 °F 29.9 in Calm   1 mph 94% 0 in 0 W/m2
20:30 40.1 °F 38.5 °F 29.9 in North 0.9 mph 1 mph 94% 0 in 0 W/m2
20:35 39.9 °F 38.3 °F 29.9 in North 0.9 mph 1 mph 94% 0 in 0 W/m2
20:40 39.7 °F 38.1 °F 29.9 in Calm   1 mph 94% 0 in 0 W/m2
20:45 39.4 °F 37.6 °F 29.9 in Calm     93% 0 in 0 W/m2
20:50 39.2 °F 37.4 °F 29.9 in Calm     93% 0 in 0 W/m2
20:55 38.8 °F 37.2 °F 29.9 in Calm     94% 0 in 0 W/m2
21:00 38.7 °F 37 °F 29.9 in North 0.9 mph 2 mph 94% 0 in 0 W/m2
21:05 38.5 °F 36.9 °F 29.9 in Calm     94% 0 in 0 W/m2
21:10 38.1 °F 36.5 °F 29.9 in Calm   2 mph 94% 0 in 0 W/m2
21:15 37.9 °F 36.3 °F 29.9 in Calm     94% 0 in 0 W/m2
21:20 37.9 °F 36.3 °F 29.9 in Calm     94% 0 in 0 W/m2
21:25 37.8 °F 36.1 °F 29.9 in Calm     94% 0 in 0 W/m2
21:30 37.6 °F 36 °F 29.9 in Calm   1 mph 94% 0 in 0 W/m2
21:35 37.8 °F 36.5 °F 29.9 in ENE 0.9 mph 2 mph 95% 0 in 0 W/m2
21:40 37.8 °F 36.5 °F 29.9 in Calm   1 mph 95% 0 in 0 W/m2
21:45 37.6 °F 36.3 °F 29.9 in Calm     95% 0 in 0 W/m2
21:50 37.6 °F 36.3 °F 29.9 in Calm     95% 0 in 0 W/m2
21:56 37.2 °F 36 °F 29.9 in Calm     95% 0 in 0 W/m2
22:01 37.2 °F 36 °F 29.9 in Calm   1 mph 95% 0 in 0 W/m2
22:06 37.2 °F 36 °F 29.9 in Calm     95% 0 in 0 W/m2
22:11 37.4 °F 36.1 °F 29.9 in Calm   2 mph 95% 0 in 0 W/m2
22:16 37.6 °F 36.3 °F 29.9 in Calm   1 mph 95% 0 in 0 W/m2
22:21 37.6 °F 36.5 °F 29.9 in Calm     96% 0 in 0 W/m2
22:26 37.8 °F 36.7 °F 29.9 in Calm   1 mph 96% 0 in 0 W/m2
22:31 37.9 °F 36.9 °F 29.9 in ENE 0.9 mph 2 mph 96% 0 in 0 W/m2
22:36 38.1 °F 37 °F 29.9 in Calm   1 mph 96% 0 in 0 W/m2
22:41 38.3 °F 37.2 °F 29.9 in Calm     96% 0 in 0 W/m2
22:46 38.5 °F 37.4 °F 29.9 in Calm     96% 0 in 0 W/m2
22:51 38.5 °F 37.4 °F 29.9 in Calm     96% 0 in 0 W/m2
22:56 38.7 °F 37.6 °F 29.9 in Calm     96% 0 in 0 W/m2
23:01 38.8 °F 37.8 °F 29.9 in Calm     96% 0 in 0 W/m2
23:06 38.8 °F 37.8 °F 29.9 in Calm     96% 0 in 0 W/m2
23:11 38.8 °F 37.8 °F 29.9 in Calm     96% 0 in 0 W/m2
23:16 39 °F 37.9 °F 29.9 in Calm     96% 0 in 0 W/m2
23:21 39 °F 37.9 °F 29.9 in Calm     96% 0 in 0 W/m2
23:26 39 °F 37.9 °F 29.9 in Calm     96% 0 in 0 W/m2
23:31 39 °F 37.9 °F 29.9 in Calm     96% 0 in 0 W/m2
23:36 39 °F 37.9 °F 29.9 in Calm     96% 0 in 0 W/m2
23:41 39 °F 37.9 °F 29.9 in Calm     96% 0 in 0 W/m2
23:46 39 °F 37.9 °F 29.9 in Calm   1 mph 96% 0 in 0 W/m2
23:51 39.4 °F 38.7 °F 29.9 in NE 2.9 mph 4 mph 97% 0 in 0 W/m2
23:56 39.6 °F 38.8 °F 29.9 in ENE 2.9 mph 4 mph 97% 0 in 0 W/m2
Juneau County Weather
Compliments of Weather Underground - 4 mb